K5RNB Weather Reports


Display with metric or nautical units.
time (UTC)temp
F
wind
direction
speed
MPH
gust
MPH
rain 1hr
in
rain 24hr
in
rain mn
in
humidity
%
barometer
mb
20260901142944 87 152 5.0 9.0 0.00 0.00 0.00 65 1015.6
20260901142444 87 152 5.0 8.0 0.00 0.00 0.00 65 1015.5
20260901141944 87 144 6.0 10.0 0.00 0.00 0.00 65 1015.6
20260901140944 87 144 5.0 9.0 0.00 0.00 0.00 66 1015.7
20260901140445 87 199 5.0 7.0 0.00 0.00 0.00 66 1015.5
20260901135946 86 126 5.0 8.0 0.00 0.00 0.00 68 1015.6
20260901135445 85 147 5.0 12.0 0.00 0.00 0.00 69 1015.5
20260901134944 85 120 5.0 12.0 0.00 0.00 0.00 70 1015.5
20260901133945 84 166 5.0 6.0 0.00 0.00 0.00 71 1015.4
20260901133446 84 155 3.0 6.0 0.00 0.00 0.00 72 1015.5
20260901132945 83 124 2.0 5.0 0.00 0.00 0.00 72 1015.4
20260901132444 83 135 1.0 3.0 0.00 0.00 0.00 73 1015.4
20260901131946 82 170 0.0 3.0 0.00 0.00 0.00 73 1015.3
20260901131444 82 170 1.0 3.0 0.00 0.00 0.00 73 1015.3
20260901130945 81 63 0.0 1.0 0.00 0.00 0.00 74 1015.2
20260901130444 81 179 0.0 1.0 0.00 0.00 0.00 74 1015.2
20260901125945 81 179 0.0 1.0 0.00 0.00 0.00 74 1015.2
20260901125444 80 179 0.0 1.0 0.00 0.00 0.00 76 1015.1
20260901124945 80 179 0.0 1.0 0.00 0.00 0.00 74 1015.1
20260901124444 80 179 0.0 1.0 0.00 0.00 0.00 74 1015.0
20260901123945 80 179 0.0 1.0 0.00 0.00 0.00 75 1015.1
20260901122945 79 146 0.0 1.0 0.00 0.00 0.00 75 1014.8
20260901121945 78 161 0.0 0.0 0.00 0.00 0.00 76 1014.7
20260901121445 78 165 0.0 0.0 0.00 0.00 0.00 76 1014.7
20260901120946 78 165 0.0 0.0 0.00 0.00 0.00 76 1014.5
20260901120445 79 165 0.0 2.0 0.00 0.00 0.00 76 1014.6
20260901115944 79 165 0.0 3.0 0.00 0.00 0.00 75 1014.5
20260901114945 79 163 0.0 2.0 0.00 0.00 0.00 75 1014.4
20260901114445 79 163 1.0 2.0 0.00 0.00 0.00 74 1014.4
20260901113945 79 163 1.0 2.0 0.00 0.00 0.00 74 1014.5
20260901113445 79 163 1.0 3.0 0.00 0.00 0.00 74 1014.4
20260901112945 80 163 1.0 3.0 0.00 0.00 0.00 74 1014.4
20260901111945 80 163 1.0 5.0 0.00 0.00 0.00 73 1014.4
20260901111445 80 163 2.0 5.0 0.00 0.00 0.00 72 1014.3
20260901110946 80 146 3.0 5.0 0.00 0.00 0.00 71 1014.2
20260901110445 81 149 2.0 3.0 0.00 0.00 0.00 70 1014.3
20260901105945 82 165 2.0 6.0 0.00 0.00 0.00 68 1014.3
20260901105445 83 117 3.0 6.0 0.00 0.00 0.00 68 1014.3
20260901104946 83 103 2.0 6.0 0.00 0.00 0.00 67 1014.3
20260901104445 83 99 2.0 6.0 0.00 0.00 0.00 67 1014.2
20260901103946 83 102 3.0 6.0 0.00 0.00 0.00 67 1014.1
20260901103445 83 87 3.0 6.0 0.00 0.00 0.00 67 1014.2
20260901102946 82 100 3.0 6.0 0.00 0.00 0.00 67 1014.0
20260901102445 82 89 3.0 3.0 0.00 0.00 0.00 67 1014.0
20260901101945 82 113 2.0 3.0 0.00 0.00 0.00 67 1013.9
20260901100945 82 164 2.0 6.0 0.00 0.00 0.00 68 1013.8
20260901100446 82 204 2.0 7.0 0.00 0.00 0.00 68 1013.8
20260901095945 81 213 5.0 8.0 0.00 0.00 0.00 68 1013.8
20260901095446 81 219 4.0 8.0 0.00 0.00 0.00 69 1013.8
20260901094946 80 224 5.0 7.0 0.00 0.00 0.00 70 1013.9
20260901094446 80 233 4.0 6.0 0.00 0.00 0.00 71 1013.9
20260901093946 80 176 2.0 3.0 0.00 0.00 0.00 71 1014.0
20260901093446 80 161 2.0 3.0 0.00 0.00 0.00 71 1014.1
20260901092946 80 161 2.0 5.0 0.00 0.00 0.00 70 1014.1
20260901092445 80 157 3.0 5.0 0.00 0.00 0.00 70 1014.1
20260901091946 80 172 2.0 5.0 0.00 0.00 0.00 69 1014.1
20260901091446 80 175 2.0 5.0 0.00 0.00 0.00 69 1014.2
20260901090946 80 173 3.0 5.0 0.00 0.00 0.00 68 1014.2
20260901090446 80 164 3.0 3.0 0.00 0.00 0.00 68 1014.2
20260901085946 80 164 2.0 3.0 0.00 0.00 0.00 67 1014.2
20260901085446 81 164 2.0 3.0 0.00 0.00 0.00 67 1014.2
20260901084947 81 167 2.0 3.0 0.00 0.00 0.00 67 1014.1
20260901084448 81 171 2.0 3.0 0.00 0.00 0.00 66 1014.2
20260901083947 81 142 1.0 3.0 0.00 0.00 0.00 65 1014.0
20260901083446 82 160 2.0 3.0 0.00 0.00 0.00 64 1014.0
20260901082947 82 143 1.0 3.0 0.00 0.00 0.00 63 1013.9
20260901082446 82 115 0.0 2.0 0.00 0.00 0.00 63 1013.9
20260901081446 83 104 0.0 2.0 0.00 0.00 0.00 62 1013.8
20260901080947 83 113 0.0 3.0 0.00 0.00 0.00 62 1013.9
20260901080446 83 138 1.0 3.0 0.00 0.00 0.00 60 1013.8
20260901075448 84 101 1.0 3.0 0.00 0.00 0.00 59 1013.8
20260901073947 85 91 1.0 3.0 0.00 0.00 0.00 57 1013.8
20260901073446 85 116 2.0 3.0 0.00 0.00 0.00 56 1013.8
20260901072947 85 101 0.0 3.0 0.00 0.00 0.00 56 1013.9
20260901072446 85 100 0.0 3.0 0.00 0.00 0.00 57 1013.8
20260901071947 84 114 1.0 3.0 0.00 0.00 0.00 57 1013.9
20260901071446 84 104 2.0 3.0 0.00 0.00 0.00 58 1013.8
20260901070947 84 104 2.0 5.0 0.00 0.00 0.00 58 1013.8
20260901070446 84 117 3.0 6.0 0.00 0.00 0.00 58 1013.6
20260901065948 84 130 3.0 6.0 0.00 0.00 0.00 58 1013.8
20260901065447 84 117 3.0 6.0 0.00 0.00 0.00 59 1013.7
20260901064947 83 104 3.0 7.0 0.00 0.00 0.00 59 1013.7
20260901064447 83 102 3.0 7.0 0.00 0.00 0.00 60 1013.6
20260901063947 82 98 1.0 3.0 0.00 0.00 0.00 62 1013.7
20260901063447 81 115 0.0 1.0 0.00 0.00 0.00 62 1013.6
20260901062947 81 115 0.0 1.0 0.00 0.00 0.00 63 1013.7
20260901062447 80 84 0.0 1.0 0.00 0.00 0.00 67 1013.6
20260901061947 79 102 0.0 1.0 0.00 0.00 0.00 67 1013.6
20260901061449 79 53 0.0 1.0 0.00 0.00 0.00 68 1013.6
20260901060947 79 53 0.0 1.0 0.00 0.00 0.00 68 1013.6
20260901060447 79 53 0.0 0.0 0.00 0.00 0.00 66 1013.5
20260901055947 79 53 0.0 0.0 0.00 0.00 0.00 66 1013.4
20260901055447 79 53 0.0 0.0 0.00 0.00 0.00 66 1013.4
20260901054947 79 53 0.0 0.0 0.00 0.00 0.00 66 1013.3
20260901054448 79 53 0.0 1.0 0.00 0.00 0.00 65 1013.4
20260901053448 79 53 0.0 1.0 0.00 0.00 0.00 67 1013.3
20260901052947 78 53 0.0 1.0 0.00 0.00 0.00 66 1013.1
20260901052447 79 53 0.0 2.0 0.00 0.00 0.00 65 1013.1
20260901051949 78 53 0.0 2.0 0.00 0.00 0.00 65 1012.9
20260901051447 78 53 0.0 2.0 0.00 0.00 0.00 64 1013.0
20260901050950 78 53 1.0 2.0 0.00 0.00 0.00 65 1012.9
20260901050448 78 53 1.0 2.0 0.00 0.00 0.00 65 1013.0
20260901045947 78 53 0.0 1.0 0.00 0.00 0.00 66 1012.8
20260901045447 79 53 0.0 1.0 0.00 0.00 0.00 66 1012.9
20260901044948 79 53 0.0 2.0 0.00 0.00 0.00 66 1012.7
20260901044448 79 53 1.0 2.0 0.00 0.00 0.00 65 1012.8
20260901043947 79 53 1.0 1.0 0.00 0.00 0.00 64 1012.7
20260901043447 79 53 0.0 1.0 0.00 0.00 0.00 66 1012.8
20260901042948 79 53 0.0 1.0 0.00 0.00 0.00 65 1012.8
20260901042448 79 53 0.0 1.0 0.00 0.00 0.00 65 1012.8
20260901041948 79 53 0.0 1.0 0.00 0.00 0.00 63 1012.7
20260901041448 80 53 0.0 1.0 0.00 0.00 0.00 63 1012.9
20260901040447 80 53 0.0 1.0 0.00 0.00 0.00 62 1012.8
20260901035948 80 53 1.0 1.0 0.00 0.00 0.00 62 1012.8
20260901035448 80 53 0.0 1.0 0.00 0.00 0.00 61 1012.8
20260901034948 80 53 0.0 2.0 0.00 0.00 0.00 62 1012.8
20260901034448 81 53 1.0 2.0 0.00 0.00 0.00 61 1012.9
20260901033447 81 53 0.0 1.0 0.00 0.00 0.00 61 1012.8
20260901032948 81 53 0.0 1.0 0.00 0.00 0.00 60 1012.8
20260901032448 81 53 0.0 1.0 0.00 0.00 0.00 59 1012.7
20260901031448 82 53 0.0 1.0 0.00 0.00 0.00 59 1012.7
20260901030948 83 53 0.0 1.0 0.00 0.00 0.00 59 1012.7
20260901030449 83 53 0.0 1.0 0.00 0.00 0.00 59 1012.6
20260901025949 83 53 0.0 1.0 0.00 0.00 0.00 59 1012.7
20260901025448 84 53 0.0 1.0 0.00 0.00 0.00 58 1012.6
20260901024948 84 53 0.0 1.0 0.00 0.00 0.00 57 1012.5
20260901024449 85 53 0.0 1.0 0.00 0.00 0.00 55 1012.4
20260901023948 85 53 0.0 1.0 0.00 0.00 0.00 53 1012.3
20260901023449 85 53 0.0 2.0 0.00 0.00 0.00 53 1012.1
20260901022949 85 53 0.0 2.0 0.00 0.00 0.00 52 1012.2
20260901022448 86 53 0.0 1.0 0.00 0.00 0.00 52 1012.1
20260901021948 86 53 0.0 3.0 0.00 0.00 0.00 52 1012.1
20260901021449 87 34 1.0 3.0 0.00 0.00 0.00 52 1012.0
20260901020449 88 70 0.0 1.0 0.00 0.00 0.00 49 1011.9
20260901015949 88 69 0.0 1.0 0.00 0.00 0.00 48 1011.9
20260901015448 89 68 0.0 1.0 0.00 0.00 0.00 47 1011.8
20260901014948 89 68 0.0 1.0 0.00 0.00 0.00 48 1011.9
20260901014449 90 83 0.0 1.0 0.00 0.00 0.00 47 1011.7
20260901013949 90 83 0.0 1.0 0.00 0.00 0.00 46 1011.7
20260901013449 91 83 0.0 1.0 0.00 0.00 0.00 45 1011.6
20260901012948 91 84 0.0 2.0 0.00 0.00 0.00 45 1011.6
20260901012449 92 126 0.0 2.0 0.00 0.00 0.00 44 1011.5
20260901011949 92 113 0.0 5.0 0.00 0.00 0.00 44 1011.6
20260901010949 92 150 2.0 5.0 0.00 0.00 0.00 43 1011.5
20260901005949 93 159 1.0 3.0 0.00 0.00 0.00 42 1011.5
20260901004950 94 158 2.0 5.0 0.00 0.00 0.00 40 1011.5
20260901004449 95 149 3.0 5.0 0.00 0.00 0.00 39 1011.5
20260901003949 95 131 3.0 6.0 0.00 0.00 0.00 39 1011.5
20260901003449 95 139 3.0 7.0 0.00 0.00 0.00 38 1011.4
20260901002949 96 152 4.0 7.0 0.00 0.00 0.00 38 1011.5
20260901002451 96 166 4.0 7.0 0.00 0.00 0.00 37 1011.4
20260901001950 96 169 4.0 9.0 0.00 0.00 0.00 37 1011.5
20260901001449 97 169 5.0 10.0 0.00 0.00 0.00 36 1011.3
20260901000949 97 189 6.0 10.0 0.00 0.00 0.00 36 1011.4
20260901000450 97 173 5.0 10.0 0.00 0.00 0.00 36 1011.4
20260831235950 97 175 7.0 12.0 0.00 0.00 0.00 35 1011.5
20260831235449 97 184 8.0 12.0 0.00 0.00 0.00 35 1011.4
20260831234949 98 184 7.0 12.0 0.00 0.00 0.00 35 1011.4
20260831234450 98 186 9.0 14.0 0.00 0.00 0.00 35 1011.4
20260831233950 98 182 6.0 14.0 0.00 0.00 0.00 35 1011.5
20260831232949 98 178 6.0 14.0 0.00 0.00 0.00 35 1011.4
20260831232450 98 163 9.0 14.0 0.00 0.00 0.00 35 1011.4
20260831230950 99 156 8.0 12.0 0.00 0.00 0.00 34 1011.4
20260831230449 99 193 9.0 13.0 0.00 0.00 0.00 34 1011.5
20260831225951 98 166 8.0 14.0 0.00 0.00 0.00 34 1011.5
20260831225449 99 163 8.0 14.0 0.00 0.00 0.00 34 1011.6
20260831224950 99 190 9.0 14.0 0.00 0.00 0.00 34 1011.6
20260831224450 99 188 10.0 16.0 0.00 0.00 0.00 33 1011.5
20260831223950 99 211 9.0 16.0 0.00 0.00 0.00 34 1011.7
20260831223450 99 202 10.0 14.0 0.00 0.00 0.00 34 1011.6
20260831222950 99 188 7.0 17.0 0.00 0.00 0.00 35 1011.7
20260831222450 99 148 10.0 17.0 0.00 0.00 0.00 34 1011.7
20260831221949 99 182 9.0 17.0 0.00 0.00 0.00 34 1011.8
20260831221450 99 164 7.0 17.0 0.00 0.00 0.00 34 1011.9
20260831220950 99 174 9.0 16.0 0.00 0.00 0.00 34 1011.8
20260831220450 99 169 10.0 17.0 0.00 0.00 0.00 34 1011.9
20260831215950 99 189 12.0 17.0 0.00 0.00 0.00 34 1011.9
20260831215450 99 181 10.0 17.0 0.00 0.00 0.00 34 1012.0
20260831214950 99 150 9.0 18.0 0.00 0.00 0.00 34 1012.0
20260831214450 99 188 10.0 18.0 0.00 0.00 0.00 34 1012.1
20260831213950 99 151 10.0 18.0 0.00 0.00 0.00 35 1012.1
20260831213450 99 143 10.0 18.0 0.00 0.00 0.00 35 1012.1
20260831212950 99 170 10.0 20.0 0.00 0.00 0.00 35 1012.2
20260831212450 99 169 9.0 20.0 0.00 0.00 0.00 34 1012.3
20260831211951 99 193 12.0 18.0 0.00 0.00 0.00 34 1012.3
20260831211450 99 172 11.0 18.0 0.00 0.00 0.00 35 1012.3
20260831210950 99 152 9.0 18.0 0.00 0.00 0.00 35 1012.3
20260831210450 99 169 9.0 17.0 0.00 0.00 0.00 34 1012.4
20260831205951 99 199 8.0 18.0 0.00 0.00 0.00 34 1012.4
20260831205451 99 158 10.0 18.0 0.00 0.00 0.00 34 1012.7
20260831204953 99 215 8.0 17.0 0.00 0.00 0.00 34 1012.8
20260831204450 99 172 10.0 18.0 0.00 0.00 0.00 34 1012.8
20260831203950 99 202 13.0 18.0 0.00 0.00 0.00 34 1012.9
20260831203451 99 148 13.0 18.0 0.00 0.00 0.00 33 1013.0
20260831202952 99 190 9.0 17.0 0.00 0.00 0.00 34 1013.0
20260831202451 98 196 10.0 20.0 0.00 0.00 0.00 35 1013.0
20260831201451 98 179 12.0 24.0 0.00 0.00 0.00 35 1013.1
20260831200950 98 170 16.0 24.0 0.00 0.00 0.00 34 1013.2
20260831200451 98 145 11.0 20.0 0.00 0.00 0.00 36 1013.2
20260831195950 98 168 10.0 21.0 0.00 0.00 0.00 34 1013.4
20260831195451 98 186 13.0 21.0 0.00 0.00 0.00 36 1013.4
20260831194950 98 202 10.0 17.0 0.00 0.00 0.00 36 1013.5
20260831194452 98 175 12.0 20.0 0.00 0.00 0.00 37 1013.6
20260831193451 97 160 8.0 18.0 0.00 0.00 0.00 37 1013.7
20260831192951 97 181 13.0 21.0 0.00 0.00 0.00 37 1013.7
20260831191951 97 162 13.0 20.0 0.00 0.00 0.00 37 1013.8
20260831191451 97 181 11.0 21.0 0.00 0.00 0.00 38 1013.9
20260831190951 97 139 12.0 24.0 0.00 0.00 0.00 37 1013.8
20260831190451 97 158 14.0 24.0 0.00 0.00 0.00 37 1014.0
20260831185950 96 163 13.0 23.0 0.00 0.00 0.00 39 1014.0
20260831185450 96 144 7.0 22.0 0.00 0.00 0.00 39 1013.9
20260831184951 97 158 12.0 22.0 0.00 0.00 0.00 40 1014.0
20260831184451 97 139 9.0 18.0 0.00 0.00 0.00 40 1014.0
20260831183951 97 156 10.0 18.0 0.00 0.00 0.00 40 1014.2
20260831182951 97 133 6.0 16.0 0.00 0.00 0.00 40 1014.3
20260831182451 96 143 7.0 17.0 0.00 0.00 0.00 41 1014.3
20260831181951 96 119 10.0 17.0 0.00 0.00 0.00 43 1014.5
20260831181451 95 134 7.0 15.0 0.00 0.00 0.00 42 1014.5
20260831180951 95 163 7.0 15.0 0.00 0.00 0.00 43 1014.6
20260831180452 96 179 9.0 15.0 0.00 0.00 0.00 42 1014.8
20260831175951 96 124 7.0 20.0 0.00 0.00 0.00 42 1014.8
20260831175452 95 101 10.0 20.0 0.00 0.00 0.00 43 1014.9
20260831174951 95 127 7.0 18.0 0.00 0.00 0.00 44 1015.0
20260831174452 96 149 12.0 18.0 0.00 0.00 0.00 42 1015.0
20260831173451 96 155 7.0 15.0 0.00 0.00 0.00 43 1015.1
20260831172953 95 125 5.0 18.0 0.00 0.00 0.00 43 1015.1
20260831171452 95 131 8.0 14.0 0.00 0.00 0.00 44 1015.3
20260831170952 94 151 6.0 17.0 0.00 0.00 0.00 44 1015.3
20260831170451 94 114 11.0 17.0 0.00 0.00 0.00 44 1015.3
20260831165952 95 135 11.0 16.0 0.00 0.00 0.00 45 1015.3
20260831165451 95 149 8.0 16.0 0.00 0.00 0.00 44 1015.2
20260831164952 95 108 6.0 13.0 0.00 0.00 0.00 44 1015.1
20260831164452 94 126 6.0 17.0 0.00 0.00 0.00 45 1015.3
20260831163951 94 110 6.0 17.0 0.00 0.00 0.00 45 1015.3
20260831163452 94 162 7.0 16.0 0.00 0.00 0.00 45 1015.3
20260831162952 93 192 9.0 17.0 0.00 0.00 0.00 44 1015.4
20260831162451 93 209 9.0 17.0 0.00 0.00 0.00 45 1015.5
20260831161952 94 170 9.0 17.0 0.00 0.00 0.00 43 1015.4
20260831161452 94 196 10.0 17.0 0.00 0.00 0.00 44 1015.5
20260831160952 93 215 7.0 14.0 0.00 0.00 0.00 45 1015.3
20260831160452 93 197 9.0 14.0 0.00 0.00 0.00 44 1015.5
20260831155953 93 214 7.0 15.0 0.00 0.00 0.00 45 1015.4
20260831154952 92 231 9.0 14.0 0.00 0.00 0.00 44 1015.4
20260831154451 92 198 6.0 13.0 0.00 0.00 0.00 46 1015.4
20260831153952 92 223 7.0 13.0 0.00 0.00 0.00 47 1015.5
20260831153452 92 205 6.0 12.0 0.00 0.00 0.00 47 1015.3
20260831152952 91 222 7.0 12.0 0.00 0.00 0.00 48 1015.4
20260831152452 91 208 5.0 12.0 0.00 0.00 0.00 49 1015.3
20260831151952 91 210 6.0 12.0 0.00 0.00 0.00 51 1015.4
20260831150453 89 203 7.0 13.0 0.00 0.00 0.00 55 1015.3
20260831145952 89 209 7.0 13.0 0.00 0.00 0.00 55 1015.3
20260831145453 88 198 7.0 12.0 0.00 0.00 0.00 57 1015.3
20260831144953 88 163 7.0 13.0 0.00 0.00 0.00 56 1015.4